Date String (YYYY-MM-DD hh:mm:ss) UTC,Instrument flags,Ambient pressure (hPa),Sample flow (lpm),Bypass flow (lpm),Sample temperature (°C),Ambient temperature (°C),ASC tube jacket temperature (°C),LED temperature (°C),Box temperature (°C),Sample RH (%),Span deviation,Mass concentration (μg/m³),Mass concentration (μg/m³),Mass concentration (μg/m³)
DateTimeUTC,F1_M11,P_M11,Q1_M11,Q2_M11,T1_M11,T2_M11,T3_M11,T4_M11,T5_M11,U1_M11,ZSPAN_M11,X0_M11,X2_M11,X1_M11
2021-09-29 04:00:00,,0819.0,5.00,0.00,29.7,26.3,00.0,38.9,31.0,18.2,0001.9,0012.05,0005.43,0004.80
2021-09-29 04:01:00,,0819.0,5.00,0.00,29.6,26.7,00.0,38.8,31.1,18.4,0001.4,0012.56,0005.42,0004.78
2021-09-29 04:02:00,,0819.0,5.01,0.00,29.5,27.1,00.0,38.8,31.1,18.4,0001.4,0014.63,0005.46,0004.79
2021-09-29 04:03:00,,0819.0,4.99,0.00,29.6,27.5,00.0,38.8,31.2,18.6,0001.3,0014.79,0005.48,0004.79
2021-09-29 04:04:00,,0819.0,4.99,0.00,29.6,27.8,00.0,38.7,31.3,18.7,0001.3,0014.49,0005.55,0004.81
2021-09-29 04:05:00,,0819.0,5.01,0.00,29.6,28.0,00.0,38.7,31.3,18.8,0001.1,0014.51,0005.62,0004.82
2021-09-29 04:06:00,,0819.0,4.99,0.00,29.6,28.2,00.0,38.7,31.4,18.8,0001.2,0015.12,0005.67,0004.84
2021-09-29 04:07:00,,0819.1,4.99,0.00,29.6,28.4,00.0,38.7,31.4,18.8,0001.5,0014.99,0005.64,0004.83
2021-09-29 04:08:00,,0819.1,5.02,0.00,29.7,28.5,00.0,38.7,31.4,18.8,0001.4,0014.81,0005.59,0004.81
2021-09-29 04:09:00,,0819.1,4.99,0.00,29.7,28.6,00.0,38.7,31.5,18.7,0001.6,0015.88,0005.55,0004.78
2021-09-29 04:10:00,,0819.1,4.99,0.00,29.7,28.7,00.0,38.8,31.5,18.6,0001.8,0015.70,0005.55,0004.77
2021-09-29 04:11:00,,0819.1,5.01,0.00,29.8,28.8,00.0,38.8,31.6,18.4,0002.1,0016.25,0005.51,0004.76
2021-09-29 04:12:00,,0819.1,5.00,0.00,29.8,28.9,00.0,38.8,31.6,18.4,0002.3,0015.37,0005.50,0004.77
2021-09-29 04:13:00,,0819.1,4.99,0.00,29.8,28.9,00.0,38.8,31.6,18.4,0002.2,0013.22,0005.45,0004.76
2021-09-29 04:14:00,,0819.1,5.01,0.00,29.8,29.0,00.0,38.8,31.7,18.3,0002.1,0012.94,0005.46,0004.77
2021-09-29 04:15:00,,0819.1,4.99,0.00,29.9,29.0,00.0,38.8,31.7,18.2,0002.3,0012.87,0005.47,0004.78
2021-09-29 04:16:00,,0819.1,5.00,0.00,29.9,29.1,00.0,38.9,31.8,18.3,0002.7,0013.13,0005.49,0004.80
2021-09-29 04:17:00,,0819.2,5.01,0.00,29.9,29.1,00.0,38.9,31.7,18.5,0002.8,0012.91,0005.51,0004.83
2021-09-29 04:18:00,,0819.1,4.99,0.00,30.0,29.1,00.0,38.9,31.8,18.5,0002.9,0012.88,0005.55,0004.85
2021-09-29 04:19:00,,0819.1,5.00,0.00,30.0,29.2,00.0,38.9,31.8,18.6,0002.6,0013.36,0005.59,0004.87
2021-09-29 04:20:00,,0819.1,4.99,0.00,30.0,29.2,00.0,39.0,31.9,18.7,0002.6,0012.97,0005.63,0004.90
2021-09-29 04:21:00,,0819.1,5.01,0.00,30.0,28.7,00.0,39.0,31.8,18.7,0002.6,0013.31,0005.60,0004.91
2021-09-29 04:22:00,,0819.1,4.99,0.00,29.9,26.7,00.0,39.0,31.2,18.9,0002.6,0013.32,0005.64,0004.91
2021-09-29 04:23:00,,0819.1,5.00,0.00,29.7,26.2,00.0,38.9,31.0,19.1,0002.6,0013.80,0005.63,0004.88
2021-09-29 04:24:00,,0819.1,5.01,0.00,29.6,26.5,00.0,38.9,31.1,19.1,0002.7,0013.82,0005.64,0004.87
2021-09-29 04:25:00,,0819.1,5.01,0.00,29.6,26.9,00.0,38.8,31.1,19.1,0002.7,0014.42,0005.60,0004.87
2021-09-29 04:26:00,,0819.2,5.00,0.00,29.6,27.3,00.0,38.8,31.2,19.2,0002.6,0014.61,0005.58,0004.85
2021-09-29 04:27:00,,0819.1,5.00,0.00,29.6,27.6,00.0,38.8,31.2,19.2,0002.4,0014.60,0005.56,0004.85
2021-09-29 04:28:00,,0819.1,4.99,0.00,29.6,27.9,00.0,38.8,31.3,19.3,0002.3,0014.66,0005.56,0004.83
2021-09-29 04:29:00,,0819.3,5.01,0.00,29.6,28.1,00.0,38.8,31.4,19.2,0002.1,0014.63,0005.55,0004.80
2021-09-29 04:30:00,,0819.3,5.01,0.00,29.6,28.3,00.0,38.8,31.4,19.2,0002.0,0014.21,0005.59,0004.79
2021-09-29 04:31:00,,0819.3,5.00,0.00,29.7,28.4,00.0,38.8,31.4,19.1,0001.7,0013.56,0005.61,0004.78
2021-09-29 04:32:00,,0819.3,5.01,0.00,29.7,28.5,00.0,38.8,31.5,19.1,0001.4,0013.35,0005.66,0004.78
2021-09-29 04:33:00,,0819.3,4.98,0.00,29.7,28.6,00.0,38.8,31.5,19.1,0001.4,0013.14,0005.62,0004.77
2021-09-29 04:34:00,,0819.3,5.00,0.00,29.7,28.6,00.0,38.8,31.6,19.1,0001.5,0012.65,0005.61,0004.79
2021-09-29 04:35:00,,0819.3,5.00,0.00,29.8,28.7,00.0,38.8,31.6,19.1,0001.3,0014.40,0005.62,0004.78
2021-09-29 04:36:00,,0819.3,5.00,0.00,29.8,28.8,00.0,38.8,31.6,19.1,0001.0,0015.62,0005.66,0004.77
2021-09-29 04:37:00,,0819.3,5.01,0.00,29.8,28.8,00.0,38.8,31.7,19.0,0000.8,0015.60,0005.67,0004.78
2021-09-29 04:38:00,,0819.3,4.99,0.00,29.8,28.9,00.0,38.9,31.7,19.0,0000.7,0015.92,0005.64,0004.78
2021-09-29 04:39:00,,0819.3,5.00,0.00,29.9,28.9,00.0,38.9,31.7,19.1,0000.8,0016.94,0005.63,0004.78
2021-09-29 04:40:00,,0819.3,5.00,0.00,29.9,28.9,00.0,38.9,31.7,19.1,0001.0,0016.91,0005.63,0004.79
2021-09-29 04:41:00,,0819.3,4.99,0.00,29.9,29.0,00.0,38.9,31.8,19.1,0001.1,0017.24,0005.67,0004.80
2021-09-29 04:42:00,,0819.3,4.99,0.00,29.9,29.0,00.0,38.9,31.8,19.1,0001.3,0018.07,0005.68,0004.80
2021-09-29 04:43:00,,0819.3,5.00,0.00,30.0,29.1,00.0,38.9,31.8,19.1,0001.4,0018.22,0005.64,0004.81
2021-09-29 04:44:00,,0819.2,5.01,0.00,30.0,29.1,00.0,39.0,31.8,19.1,0001.5,0017.82,0005.66,0004.82
2021-09-29 04:45:00,,0819.2,4.99,0.00,30.0,28.6,00.0,39.0,31.7,19.1,0001.5,0018.66,0005.68,0004.82
2021-09-29 04:46:00,,0819.3,5.00,0.00,29.9,26.6,00.0,39.0,31.2,19.3,0001.5,0017.79,0005.70,0004.83
2021-09-29 04:47:00,,0819.3,4.99,0.00,29.7,26.1,00.0,38.9,31.0,19.4,0001.6,0016.04,0005.67,0004.82
2021-09-29 04:48:00,,0819.3,5.00,0.00,29.6,26.4,00.0,38.9,31.1,19.6,0001.8,0016.32,0005.67,0004.79
2021-09-29 04:49:00,,0819.3,5.01,0.00,29.6,26.8,00.0,38.8,31.1,19.7,0002.1,0015.70,0005.70,0004.78
2021-09-29 04:50:00,,0819.3,5.00,0.00,29.6,27.2,00.0,38.8,31.1,19.7,0002.0,0015.11,0005.71,0004.76
2021-09-29 04:51:00,,0819.3,4.99,0.00,29.5,27.5,00.0,38.8,31.2,19.8,0002.0,0015.48,0005.70,0004.73
2021-09-29 04:52:00,,0819.3,5.01,0.00,29.6,27.8,00.0,38.8,31.2,19.9,0002.1,0014.98,0005.60,0004.68
2021-09-29 04:53:00,,0819.2,4.99,0.00,29.6,28.0,00.0,38.7,31.3,19.9,0002.1,0014.19,0005.57,0004.62
2021-09-29 04:54:00,,0819.2,5.01,0.00,29.6,28.2,00.0,38.7,31.4,19.9,0002.0,0013.92,0005.57,0004.57
2021-09-29 04:55:00,,0819.3,5.00,0.00,29.6,28.4,00.0,38.7,31.4,19.8,0001.9,0013.84,0005.54,0004.52
2021-09-29 04:56:00,,0819.3,5.00,0.00,29.6,28.5,00.0,38.8,31.4,19.7,0001.8,0013.21,0005.53,0004.49
2021-09-29 04:57:00,,0819.4,5.00,0.00,29.7,28.5,00.0,38.8,31.5,19.7,0002.1,0012.19,0005.46,0004.44
2021-09-29 04:58:00,,0819.4,5.01,0.00,29.7,28.6,00.0,38.8,31.5,19.7,0002.2,0012.44,0005.42,0004.41
2021-09-29 04:59:00,,0819.3,5.00,0.00,29.7,28.6,00.0,38.8,31.5,19.7,0002.0,0012.99,0005.39,0004.40
